cliquez pour ajouter le site Runraid à vos favoris  English version (google)  Retour à l'accueil Ecrire à l'auteur du site Runraid : Michel Jourdan



Les prochaines courses


Les derniers résultats

cliquez pour visualiser la page complète relatant la chronologie des éruptions du Piton de la Fournaise
éruptions Piton de la Fournaise


Ile de La Réunion

 Diagonale des Fous 

Ecrire au créateur du site : Michel Jourdan
Contact


2015-08-01 - UTRB Ile Maurice (10 km)

Pour consulter le palmarès d'un coureur, un clic sur son nom !

Vous avez des remarques, corrections, ... sur ces résultats , un clic sur --> pour me transmettre toute information concernant les classements


UTRB Ile Maurice (10 km) - 2015 : classement des 293 finishers
Place Nom Temps Cat. Club Sexe Clt/cat.
Place Nom Temps Cat. Club Sexe Clt/cat.
1 XAVIER Verny 00:37:04 SEM - M 1 SEM 639
2 KHELAWON Harris 00:37:10 V1M - M 1 V1M 459
3 AREQUION Michael 00:42:36 V1M - M 2 V1M 316
4 MOOROOVEN Krishna 00:43:06 V1M - M 3 V1M 527
5 PUY MARCELLE 00:43:10 V1F CAPOSS F 1ere F 642
6 OODUN Yohann 00:43:12 SEM - M 2 SEM 543
7 CLAIN NICOLAS 00:43:22 JUM RDB M 1 JUM 644
8 COTTE Jonathan 00:43:41 SEM - M 3 SEM 373
9 CATHERINE Richard 00:43:46 V1M - M 4 V1M 359
10 LESTE Alessandro 00:44:05 CAM - M 1 CAM 485
11 BAPPOO Tanajee 00:44:35 V1M - M 5 V1M 327
12 PHOKEERDASS Thierry 00:45:08 ESM - M 1 ESM 557
13 LUKEA Anandrow 00:45:11 V2M - M 1 V2M 498
14 ROSEMAIN Armand 00:47:08 SEM - M 4 SEM 589
15 SIOW PING Steven 00:47:18 SEM - M 5 SEM 608
16 HILAIRE Louis Jean 00:47:37 V1M - M 6 V1M 433
17 APOLLON Louis Jonifer 00:47:48 V1M - M 7 V1M 313
18 KUTI Eric 00:47:51 V1M - M 8 V1M 465
19 DE FALBAIRE Valery 00:48:08 SEM - M 6 SEM 379
20 VERLOPPE Benzy 00:49:02 ESM - M 2 ESM 628
21 LABONNE Anthony 00:49:37 SEM - M 7 SEM 468
22 CLAIN MIKAEL 00:49:49 MIM RDB M 1 MIM 643
23 CONSTANTIN Xavier 00:50:33 SEM - M 8 SEM 372
24 HARTMANN Niels 00:51:04 MIM - M 2 MIM 429
25 AZZOPARDI Luigi 00:51:09 CAM - M 2 CAM 320
26 JULIE Sandro Paulo Michel 00:51:17 SEM - M 9 SEM 455
27 PICCINOTTI Cristina 00:51:32 SEF - F 2eme F / 1 SEF 562
28 LEFEBURE FABIEN 00:51:54 SEM - M 10 SEM 647
29 XAVIER Didier 00:52:09 V1M - M 9 V1M 638
30 RITLALL Gomedhanand 00:52:10 SEM - M 11 SEM 585
31 INGIL Stephano 00:52:39 SEM - M 12 SEM 441
32 MULOT Philippe 00:53:43 V1M - M 10 V1M 531
33 ESPITALIER NOEL Rebecca 00:53:50 ESF - F 3eme F / 1 ESF 400
34 BRIEU Masson 00:54:05 SEM - M 13 SEM 351
35 MERCHER Jhonny 00:54:24 SEM AC Salazie M 14 SEM 514
36 MECKLENBURGH Ursula 00:54:25 SEF - F 4eme F / 2 SEF 513
37 CHUTTOOR Ritesh 00:54:54 SEM - M 15 SEM 370
38 MARCEL Masson 00:55:01 V3M - M 1 V3M 507
39 PIERRE Benoit 00:55:03 SEF - F 5eme F / 3 SEF 563
40 MULLIAH Atish 00:55:11 SEM - M 16 SEM 530
41 D'ARIFAT Loren 00:55:20 SEF - F 6eme F / 4 SEF 378
42 LE COURT DE BILLOT Raymond 00:55:23 SEM - M 17 SEM 472
43 REEDAYE Kooshal (Ayvind) 00:56:21 SEM - M 18 SEM 582
44 ESPITALIER NOEL Gilbert 00:56:45 V2M - M 2 V2M 403
45 OLEEMUN Ahmad 00:56:55 V1M - M 11 V1M 541
46 LEBON Olivier 00:56:58 SEM - M 19 SEM 474
47 ARMANSIN Thierry 00:57:00 ESM - M 3 ESM 317
48 MANDARY Ashwin 00:57:05 SEM - M 20 SEM 505
49 DEW Nathan 00:57:16 SEM - M 21 SEM 387
50 DEW Donna 00:57:20 V2F - F 7eme F / 1 V2F 388
51 SIN FAI LAN Yann 00:57:24 V2M - M 3 V2M 607
52 BALLOO Jaysan 00:57:53 V1M - M 12 V1M 325
53 BANCHARAM Ketan 00:57:54 ESM - M 4 ESM 326
54 MANIQUE Jonathan 00:58:11 SEM - M 22 SEM 506
55 MOSES Jerome 00:58:31 SEM - M 23 SEM 528
56 PANDOO Chanil 00:58:36 SEM - M 24 SEM 546
57 CANTA Christophe 00:58:56 SEM - M 25 SEM 355
58 RAMNUNDUN Arjun 00:58:57 SEM - M 26 SEM 579
59 VENUS Ersley 00:59:06 SEM - M 27 SEM 627
60 LECOURT Trish 00:59:08 SEM - M 28 SEM 478
61 ANTOINE Chrisitian 00:59:16 SEM - M 29 SEM 310
62 JULIE Yannick 00:59:35 SEM - M 30 SEM 454
63 RAMSURRUN Vimal 00:59:49 ESM - M 5 ESM 580
64 SENEQUE jean michel 00:59:51 SEM - M 31 SEM 601
65 ANTONIO Doris 00:59:58 V1F - F 8eme F / 2 V1F 312
66 L'EVEILLe Didier 01:00:05 SEM - M 32 SEM 489
67 DOOKEE Astanand 01:00:11 V1M - M 13 V1M 392
68 FLORENT Masson 01:00:14 SEM - M 33 SEM 408
69 ESPITALIER NOEL Caroline 01:00:54 V2F - F 9eme F / 2 V2F 399
70 LABONNE Elodie 01:00:58 SEM - M 34 SEM 466
71 JAUNGTOO Satyam 01:01:01 SEM - M 35 SEM 445
72 POKHUN Kavirajsingh 01:01:16 SEM - M 36 SEM 569
73 PICARD Theresien 01:01:17 V3M - M 2 V3M 560
74 BHUNDOO Minesh 01:01:22 SEM - M 37 SEM 339
75 PITTEEA Ramjee Swapneel 01:01:29 POM - M 1 POM 567
76 RAMDEWOR Chintoo 01:01:34 SEM - M 38 SEM 576
77 BAULUCK Damien Emmanuel 01:01:39 SEM - M 39 SEM 329
78 RAMGUTTEE San 01:01:51 SEM - M 40 SEM 578
79 LEPIONNIER Olivier 01:01:56 SEM - M 41 SEM 482
80 DE GERSIGNY Vanessa 01:02:04 SEF - F 10eme F / 5 SEF 381
81 VANWALSCAPPEL HUGO 01:02:09 EAM - M 1 EAM 622
82 LOUISE Elza 01:02:17 ESF - F 11eme F / 2 ESF 495
83 MONTEZUMA Jean Bernard 01:02:19 SEM - M 42 SEM 524
84 BELLEPEAU Arianne 01:02:21 V1F - F 12eme F / 3 V1F 332
85 PITTEEA Luxmee Priyanka 01:02:21 MIM - M 3 MIM 566
86 SENEQUE Olivier 01:02:22 SEM - M 43 SEM 600
87 BARGE Nathalie 01:02:23 V2F - F 13eme F / 3 V2F 328
88 CHAMAROO Dahianand 01:02:23 V2M - M 4 V2M 365
89 BENOIT Alberti 01:02:48 SEM - M 44 SEM 334
90 CAZELIN Reginald 01:02:51 V1M - M 14 V1M 361
91 MOTAIS Berenice 01:03:19 ESF - F 14eme F / 3 ESF 529
92 WONG CHIN Laval 01:03:50 SEM - M 45 SEM 635
93 SQUARZONI CLAIRE 01:03:54 ESF - F 15eme F / 4 ESF 611
94 FRIGYIK Ella 01:04:11 CAF - F 16eme F / 1 CAF 414
95 HERBST Anne Christine 01:04:12 V2F - F 17eme F / 4 V2F 431
96 SQUARZONI MICHELLE 01:04:23 V3F - F 18eme F / 1 V3F 652
97 Dossard #505993 01:04:25 SEM - M 46 SEM 505993
98 DUPOUY Louis Gerard Nicola 01:04:26 V1M - M 15 V1M 397
99 LEROY Yan 01:04:28 SEM - M 47 SEM 483
100 LUKEA Chetnabye 01:04:30 ESM - M 6 ESM 499
101 GARC A ROS Cristina 01:04:32 SEF - F 19eme F / 6 SEF 415
102 MONJE Olga 01:04:33 SEF - F 20eme F / 7 SEF 521
103 FERNANDEZ Irene 01:04:35 SEF - F 21eme F / 8 SEF 406
104 Dossard #651 01:04:35 SEM - M 48 SEM 651
105 GEETUN Sunnydev 01:04:36 SEM - M 49 SEM 416
106 ESPITALIER NOEL Florence 01:04:46 JUF - F 22eme F / 1 JUF 401
107 NAIRAC Olivier 01:04:46 SEM - M 50 SEM 534
108 LUXIMON Sachin 01:04:48 SEM - M 51 SEM 500
109 KOON Maxwell 01:04:50 SEM - M 52 SEM 462
110 LEBON Valerie 01:04:53 V1F - F 23eme F / 4 V1F 476
111 LEBON Christian 01:04:54 V1M - M 16 V1M 477
112 CANDIDO HERNANDEZ 01:05:01 V1M - M 17 V1M 650
113 VINEY Bertrand 01:05:11 SEM - M 53 SEM 632
114 YONG Marie France 01:05:13 V2F - F 24eme F / 5 V2F 641
115 OHM MARIE 01:05:32 SEF - F 25eme F / 9 SEF 540
116 DE SPEVILLE EMILIE 01:05:33 SEF - F 26eme F / 10 SEF 511
117 HUET Frederic 01:05:35 SEM - M 54 SEM 439
118 GOOLJHAR Dylan 01:05:36 JUM - M 2 JUM 423
119 BLANDIN DE CHALAIN Pascale 01:05:44 SEF - F 27eme F / 11 SEF 346
120 CALOU Marie Rachelle Jennifer 01:05:57 V1F - F 28eme F / 5 V1F 353
121 PIGEOT Thierry 01:06:05 SEF - F 29eme F / 12 SEF 565
122 KANHYE Mahendra 01:06:22 V1M - M 18 V1M 457
123 CHUTTURGOON Maddoo 01:06:24 V3M - M 3 V3M 371
124 BOSQUET Boris 01:06:42 SEM - M 55 SEM 347
125 PICARD Suzanne 01:07:19 V2F - F 30eme F / 6 V2F 559
126 Dossard #505225 01:07:25 SEM - M 56 SEM 505225
127 AUDIBERT CLAUDIA 01:07:29 SEF - F 31eme F / 13 SEF 649
128 SANSOUCI Jim 01:07:36 SEM - M 57 SEM 597
129 DUNNERAM Rajiv 01:08:04 SEM - M 58 SEM 396
130 MUNGUR Omduth 01:08:10 V2M - M 5 V2M 532
131 GOODUR Alvin 01:08:12 SEM - M 59 SEM 421
132 GOOLJAR Anoop 01:08:18 V1M - M 19 V1M 422
133 NOEL Marina 01:08:18 SEF - F 32eme F / 14 SEF 537
134 WONG PIN Ludovic 01:08:27 BEM - M 1 BEM 636
135 ESPITALIER NOEL Maxime 01:08:31 CAM - M 3 CAM 402
136 WONG PIN Patrick 01:08:33 V1M - M 20 V1M 637
137 MAHADOO Kevin 01:08:35 SEM - M 60 SEM 502
138 CUNDASAMY Louis Gerard 01:08:43 V1M - M 21 V1M 375
139 VERRIERE Bernard Michael 01:08:56 V1M - M 22 V1M 631
140 MITTOO Amrit Soobashchand 01:09:32 SEM - M 61 SEM 518
141 LUCAIN Yohansen 01:09:36 SEM - M 62 SEM 496
142 NUNDOO Mahendranath 01:09:40 SEM - M 63 SEM 539
143 LESTE Benito 01:09:44 V1M - M 23 V1M 486
144 WONG Sandrine 01:10:23 SEF - F 33eme F / 15 SEF 633
145 BABOOLALL sajesh 01:10:29 SEM - M 64 SEM 321
146 MONTENOT Christophe 01:10:29 SEM - M 65 SEM 522
147 LEPIONNIER Anne 01:10:46 SEF - F 34eme F / 16 SEF 481
148 CHONG Frederick 01:10:53 SEM - M 66 SEM 368
149 CARINE Mungly 01:11:08 SEM - M 67 SEM 356
150 MICHAUD Francois Didier 01:11:10 V1M - M 24 V1M 516
151 ROUSSEL Michael 01:11:31 V1M - M 25 V1M 591
152 ROUSSEL Pierre 01:11:32 V3M - M 4 V3M 592
153 MUSSARD Katriona 01:11:41 SEF - F 35eme F / 17 SEF 533
154 JOLIVET Vincent 01:11:43 SEM - M 68 SEM 450
155 JOLIVET Pierre 01:11:45 V1M - M 26 V1M 449
156 BACHE Martine 01:11:56 V1F - F 36eme F / 6 V1F 322
157 HERBST Will 01:12:08 V2M - M 6 V2M 432
158 GORIN Gabrielle 01:12:10 V1F - F 37eme F / 7 V1F 425
159 GORIN Raphael 01:12:17 V1M - M 27 V1M 424
160 ALLEN VEERASAMY Gael 01:12:21 SEF - F 38eme F / 18 SEF 307
161 BISHOP Linda 01:12:59 V2F - F 39eme F / 7 V2F 341
162 BENARD Dominique 01:13:02 V1M - M 28 V1M 333
163 HOARAU Samuel 01:13:04 SEM - M 69 SEM 435
164 APPAVOU Selen 01:13:06 SEF - F 40eme F / 19 SEF 315
165 PERRINE Ashley 01:13:31 ESF - F 41eme F / 5 ESF 553
166 DANTIER Julien 01:13:47 SEM - M 70 SEM 377
167 CHARLOT Korine 01:14:44 SEF - F 42eme F / 20 SEF 367
168 CUNJAMALAY Melvina 01:15:10 SEF - F 43eme F / 21 SEF 376
169 JOOMUN Waahid 01:15:11 SEM - M 71 SEM 451
170 LO FAN HIN Sharon 01:15:14 SEF - F 44eme F / 22 SEF 494
171 BADULLA Iqbal 01:15:26 V2M - M 7 V2M 323
172 ROUSSEAU Emmanuelle 01:15:32 SEF - F 45eme F / 23 SEF 590
173 JULIEN Brigitte 01:15:42 V1F - F 46eme F / 8 V1F 456
174 PAOLETTI Rico 01:15:46 V2M - M 8 V2M 547
175 ANTHONY Michael 01:15:52 V1M - M 29 V1M 308
176 FON SING Jeremy 01:15:57 JUM - M 3 JUM 409
177 DE FALBAIRE Jasmine 01:15:57 SEF - F 47eme F / 24 SEF 380
178 LABONNE SEBASTIEN 01:16:03 SEM - M 72 SEM 467
179 FRANCOIS Dominique 01:16:16 V2M - M 9 V2M 411
180 MAURICE PENDELLIAU Brigitte 01:16:18 V2F - F 48eme F / 8 V2F 512
181 BELLEC Emmanuelle Charlotte Helene 01:16:24 SEF - F 49eme F / 25 SEF 331
182 GUERIN Sebastien 01:16:24 SEM - M 73 SEM 427
183 AHAMUDALLY Mohammad Shameen 01:16:46 V1M - M 30 V1M 305
184 BISSESSUR Mahendra 01:17:09 V1M - M 31 V1M 342
185 POHLOVA Irena 01:17:54 SEF - F 50eme F / 26 SEF 568
186 SOHAWON Sultan 01:17:57 V3M - M 5 V3M 609
187 CECILE Yannick 01:18:06 SEM - M 74 SEM 362
188 KISHTOO Marie Catherine 01:18:07 SEF - F 51eme F / 27 SEF 461
189 ROHOMAN Shameem 01:18:08 SEM - M 75 SEM 587
190 KAUROO Roshan 01:18:12 SEM - M 76 SEM 458
191 SIN FAI LAN Caroline 01:18:23 V1F - F 52eme F / 9 V1F 606
192 ITTOO Dev 01:18:23 V1M - M 32 V1M 443
193 CAMILLE Jhonny 01:18:30 V3M - M 6 V3M 354
194 CHRISTOPHE Jean Michel 01:18:31 SEM - M 77 SEM 369
195 SENEQUE Marie Corine 01:18:36 V1F - F 53eme F / 10 V1F 602
196 FRIGYIK Luka 01:19:05 MIM - M 4 MIM 413
197 FRIGYIK Sandor 01:19:09 V2M - M 10 V2M 412
198 JOURDAIN Alexandre 01:19:12 MIM - M 5 MIM 452
199 CHAN Marie Noelle 01:19:27 V1F - F 54eme F / 11 V1F 366
200 PEYROT Vanessa 01:19:49 SEF - F 55eme F / 28 SEF 554
201 SEENARAIN Deepukswar 01:20:19 V1M - M 33 V1M 599
202 TONOO Nitish 01:20:37 SEM - M 78 SEM 619
203 BOUIC Robert 01:20:43 V4M - M 1 V4M 350
204 SHIRLEY Myrthill 01:20:53 SEF - F 56eme F / 29 SEF 605
205 REFF Martine 01:21:01 V2F - F 57eme F / 9 V2F 584
206 REFF Pascal 01:21:01 V2M - M 11 V2M 583
207 JUGDEWO Vidya 01:21:14 SEM - M 79 SEM 453
208 GHUNASHAM Kashinath 01:21:19 SEM - M 80 SEM 417
209 FON SING Max 01:21:36 V2M - M 12 V2M 410
210 LUCKHUN Anushka 01:21:40 SEM - M 81 SEM 497
211 EASTON FON SING Audrey 01:21:52 V2F - F 58eme F / 10 V2F 398
212 CESAR Jean Clifford 01:22:25 V1M - M 34 V1M 363
213 AH NIEME Olivia 01:23:00 SEF - F 59eme F / 30 SEF 306
214 MONTOCCHIO Bertrand 01:24:05 V2M - M 13 V2M 526
215 BERRY Nadine 01:24:20 V1F - F 60eme F / 12 V1F 337
216 COULON ASSAME Jeremie 01:24:47 SEM - M 82 SEM 374
217 MASSON Veronique 01:25:39 V3M - M 7 V3M 630
218 AZA Prisca 01:26:28 SEF - F 61eme F / 31 SEF 319
219 FIGARO Natacha 01:26:34 SEF - F 62eme F / 32 SEF 407
220 FELIX Joelle 01:26:37 SEF - F 63eme F / 33 SEF 404
221 DOUCE Lorina 01:26:40 ESF - F 64eme F / 6 ESF 395
222 SOOKOO Shardha 01:27:37 SEM - M 83 SEM 610
223 THANTHANEE Vissouananden 01:27:40 SEM - M 84 SEM 616
224 OWEN FRIGYIK Talia 01:27:48 V1F - F 65eme F / 13 V1F 545
225 BERRY Mervin 01:28:01 V3M - M 8 V3M 336
226 LEBON Desirella 01:28:04 V1F - F 66eme F / 14 V1F 475
227 DHONYE Irshaad 01:28:26 SEM - M 85 SEM 389
228 GRANDPORT Didier 01:28:45 SEM - M 86 SEM 426
229 VENKATASAMY Laura 01:30:40 SEF - F 67eme F / 34 SEF 624
230 AH YOUNG Karen 01:30:47 SEF - F 68eme F / 35 SEF 304
231 RAMDHINNY Anusha 01:30:50 SEM - M 87 SEM 577
232 GOBINDRAM Shelina 01:30:55 SEF - F 69eme F / 36 SEF 419
233 JEANNE Marcel 01:30:59 V1M - M 35 V1M 446
234 BUNDHOO Vrustee 01:31:22 SEM - M 88 SEM 352
235 BLANC Patricia 01:33:02 V2F - F 70eme F / 11 V2F 345
236 ANTOINETTE Frederic 01:33:22 SEM - M 89 SEM 311
237 GIRDHARI Roshni 01:34:37 SEM - M 90 SEM 418
238 PARIS Narcisse 01:35:27 SEM - M 91 SEM 548
239 NIKOLSKAYA Margarita 01:35:45 V1M - M 36 V1M 536
240 STAUB Virginie 01:35:47 SEF - F 71eme F / 37 SEF 612
241 CLAIN MARIE JEANNE 01:36:18 V4F RDB F 72eme F / 1 V4F 645
242 CLAIN CORALIE 01:36:20 ESF RDB F 73eme F / 7 ESF 646
243 LESTE Dorinne 01:36:26 V1F - F 74eme F / 15 V1F 484
244 MONTOCCHIO Eugenie 01:36:28 SEF - F 75eme F / 38 SEF 525
245 RAM Anousha 01:36:29 SEM - M 92 SEM 575
246 JEANNE Gilberte 01:38:46 V1F - F 76eme F / 16 V1F 447
247 LEPIONNIER Fabienne 01:38:50 SEF - F 77eme F / 39 SEF 480
248 PICARD Florent 01:38:52 SEF - F 78eme F / 40 SEF 561
249 JHARIA JAYANTEE 01:40:29 SEM - M 93 SEM 448
250 AUGUSTIN Didier 01:40:32 SEM - M 94 SEM 318
251 DHOOTUN DORZA Pammela 01:40:35 SEF - F 79eme F / 41 SEF 390
252 LIM WAN Elizabeth 01:40:43 V2F - F 80eme F / 12 V2F 491
253 SHIBOO Kamal 01:42:32 SEM - M 95 SEM 604
254 BENOIT Joelle 01:42:39 SEF - F 81eme F / 42 SEF 335
255 HOPE Nathalie 01:43:01 V1F - F 82eme F / 17 V1F 436
256 BOUDAN Frederic 01:43:21 SEM - M 96 SEM 349
257 SALAMUN Shamiha 01:44:09 SEM - M 97 SEM 594
258 VENPIN Suzy 01:44:18 V1F - F 83eme F / 18 V1F 626
259 TSANG Christine 01:44:22 V2F - F 84eme F / 13 V2F 620
260 CATHERINE Fleurant 01:45:11 SEM - M 98 SEM 360
261 KORIMBOCUS Marie Christine 01:45:23 SEF - F 85eme F / 43 SEF 460
262 HEERA Nourine 01:45:26 SEM - M 99 SEM 430
263 PEROUMAL Antonella 01:45:39 V1M - M 37 V1M 552
264 PIAT Bertrand 01:45:51 V2M - M 14 V2M 558
265 ANTHONY Dorina 01:46:46 SEF - F 86eme F / 44 SEF 309
266 VENPIN Jean Philppe 01:47:57 V1M - M 38 V1M 625
267 LIU LIONG WAH Jocelyne 01:47:59 SEF - F 87eme F / 45 SEF 493
268 LIM WAN Jean Marc 01:48:16 V1M - M 39 V1M 490
269 LITAI LIM Yeelin 01:49:36 SEM - M 100 SEM 492
270 ITHIER David 01:51:07 SEM - M 101 SEM 442
271 SALAJEE Yasmin 01:52:04 V2F - F 88eme F / 14 V2F 593
272 HURREERAM Risha 01:53:10 SEM - M 102 SEM 440
273 DOOKHEEA Asmeeta 01:53:12 SEM - M 103 SEM 393
274 PHILOGENE Majo 01:53:16 V2M - M 15 V2M 555
275 LEVAPEUR Nadia 01:54:33 SEM - M 104 SEM 488
276 STEPHEN Mary Ann 01:54:35 V2F - F 89eme F / 15 V2F 613
277 CHEN LIANG YIN 01:54:50 V2F - F 90eme F / 16 V2F 648
278 MONTEZUMA Kate 01:55:09 SEF - F 91eme F / 46 SEF 523
279 MICHAELLA Philippe 01:55:40 SEM - M 105 SEM 515
280 DINESH SUNASSEE Sunassee 01:55:44 SEF - F 92eme F / 47 SEF 391
281 TATIANA CHIN SIONG Chin Siong 01:55:50 JUM - M 4 JUM 615
282 FERDINAND Dorothy 01:57:05 SEF - F 93eme F / 48 SEF 405
283 QUENETTE Linda 01:57:08 V2F - F 94eme F / 17 V2F 572
284 QUENETTE Marie Aurelie Julie 01:57:10 SEF - F 95eme F / 49 SEF 573
285 CASSADIN L'ESPERANCE Dorianne 01:59:09 SEF - F 96eme F / 50 SEF 358
286 BOTTE Priscille 02:10:14 SEF - F 97eme F / 51 SEF 348
287 HIU AH NEN Jean Pierre 02:10:18 V1M - M 40 V1M 434
288 APPADOO Harsha 02:15:20 SEM - M 106 SEM 314
289 CASE Agnes 02:15:22 V1F - F 98eme F / 19 V1F 357
290 DESCROIZILLES Frederique 02:17:18 V2F - F 99eme F / 18 V2F 385
291 TIMOL Rahella 02:17:21 V1M - M 41 V1M 618
292 DESCELLES Astrid 02:19:39 V3F - F 100eme F / 2 V3F 384
293 DESCELLES Jean Paul 02:19:43 SEM - M 107 SEM 38


ReferencementCe site est listé dans la catégorie Sport : Sports extrêmes Dictionnaire
| Accueil | La Réunion  Vue du ciel | Météo | Cyclones | Volcan | Cirques de Mafate , Cilaos , Salazie | Photos Randonnées | Randonnées Réunion: Randos Espiègle , Courses montagne | Diagonale des Fous |  Marathon des Sables | Voyages Les stats du site | Fonds écran | Plan du site | Blog de runraid | Galerie photos Sport Réunion |